Year,Month,Day,Hour,Minute,Value (Times are PST for windspeed in km/hr)
2009,10,31,00,00,18.60
2009,10,31,00,01,14.60
2009,10,31,00,02,16.50
2009,10,31,00,03,20.80
2009,10,31,00,04,11.60
2009,10,31,00,05,14.80
2009,10,31,00,06,17.70
2009,10,31,00,07,19.10
2009,10,31,00,08,16.70
2009,10,31,00,09,15.00
2009,10,31,00,10,11.70
2009,10,31,00,11,19.50
2009,10,31,00,12,11.50
2009,10,31,00,13,9.70
2009,10,31,00,14,12.80
2009,10,31,00,15,12.10
2009,10,31,00,16,14.90
2009,10,31,00,17,12.50
2009,10,31,00,18,16.00
2009,10,31,00,19,15.20
2009,10,31,00,20,14.20
2009,10,31,00,21,16.00
2009,10,31,00,22,15.00
2009,10,31,00,23,8.20
2009,10,31,00,24,12.00
2009,10,31,00,25,23.80
2009,10,31,00,26,20.80
2009,10,31,00,27,25.40
2009,10,31,00,28,26.00
2009,10,31,00,29,16.10
2009,10,31,00,30,18.80
2009,10,31,00,31,13.20
2009,10,31,00,32,20.00
2009,10,31,00,33,15.50
2009,10,31,00,34,16.50
2009,10,31,00,35,14.70
2009,10,31,00,36,14.10
2009,10,31,00,37,17.00
2009,10,31,00,38,12.00
2009,10,31,00,39,10.90
2009,10,31,00,40,14.50
2009,10,31,00,41,16.80
2009,10,31,00,42,13.30
2009,10,31,00,43,15.80
2009,10,31,00,44,17.70
2009,10,31,00,45,12.60
2009,10,31,00,46,13.90
2009,10,31,00,47,22.40
2009,10,31,00,48,15.80
2009,10,31,00,49,17.90
2009,10,31,00,50,12.20
2009,10,31,00,51,18.10
2009,10,31,00,52,24.10
2009,10,31,00,53,15.50
2009,10,31,00,54,16.90
2009,10,31,00,55,19.40
2009,10,31,00,56,16.60
2009,10,31,00,57,16.30
2009,10,31,00,58,18.50
2009,10,31,00,59,26.10
2009,10,31,01,00,22.10
2009,10,31,01,01,23.60
2009,10,31,01,02,27.10
2009,10,31,01,03,18.70
2009,10,31,01,04,20.90
2009,10,31,01,05,21.40
2009,10,31,01,06,15.90
2009,10,31,01,07,16.90
2009,10,31,01,08,20.20
2009,10,31,01,09,18.30
2009,10,31,01,10,20.70
2009,10,31,01,11,18.40
2009,10,31,01,12,23.90
2009,10,31,01,13,23.30
2009,10,31,01,14,27.40
2009,10,31,01,15,22.70
2009,10,31,01,16,26.70
2009,10,31,01,17,19.70
2009,10,31,01,18,30.90
2009,10,31,01,19,23.70
2009,10,31,01,20,26.80
2009,10,31,01,21,23.50
2009,10,31,01,22,23.30
2009,10,31,01,23,15.40
2009,10,31,01,24,19.20
2009,10,31,01,25,19.80
2009,10,31,01,26,22.40
2009,10,31,01,27,14.70
2009,10,31,01,28,16.40
2009,10,31,01,29,22.20
2009,10,31,01,30,20.10
2009,10,31,01,31,16.70
2009,10,31,01,32,18.30
2009,10,31,01,33,21.90
2009,10,31,01,34,29.00
2009,10,31,01,35,16.40
2009,10,31,01,36,17.80
2009,10,31,01,37,20.40
2009,10,31,01,38,17.00
2009,10,31,01,39,18.90
2009,10,31,01,40,17.10
2009,10,31,01,41,16.20
2009,10,31,01,42,18.40
2009,10,31,01,43,16.10
2009,10,31,01,44,13.90
2009,10,31,01,45,20.00
2009,10,31,01,46,15.60
2009,10,31,01,47,9.00
2009,10,31,01,48,16.70
2009,10,31,01,49,16.30
2009,10,31,01,50,8.10
2009,10,31,01,51,14.30
2009,10,31,01,52,11.00
2009,10,31,01,53,8.10
2009,10,31,01,54,18.20
2009,10,31,01,55,15.00
2009,10,31,01,56,9.70
2009,10,31,01,57,13.80
2009,10,31,01,58,11.10
2009,10,31,01,59,15.90
2009,10,31,02,00,9.80
2009,10,31,02,01,7.20
2009,10,31,02,02,9.20
2009,10,31,02,03,4.60
2009,10,31,02,04,12.00
2009,10,31,02,05,8.30
2009,10,31,02,06,7.00
2009,10,31,02,07,12.80
2009,10,31,02,08,10.80
2009,10,31,02,09,14.30
2009,10,31,02,10,7.80
2009,10,31,02,11,8.80
2009,10,31,02,12,10.60
2009,10,31,02,13,7.70
2009,10,31,02,14,14.60
2009,10,31,02,15,10.30
2009,10,31,02,16,8.00
2009,10,31,02,17,8.00
2009,10,31,02,18,8.40
2009,10,31,02,19,7.00
2009,10,31,02,20,10.00
2009,10,31,02,21,10.40
2009,10,31,02,22,9.00
2009,10,31,02,23,8.90
2009,10,31,02,24,6.60
2009,10,31,02,25,4.60
2009,10,31,02,26,7.60
2009,10,31,02,27,8.90
2009,10,31,02,28,5.50
2009,10,31,02,29,9.70
2009,10,31,02,30,8.60
2009,10,31,02,31,9.00
2009,10,31,02,32,7.90
2009,10,31,02,33,8.30
2009,10,31,02,34,10.00
2009,10,31,02,35,7.90
2009,10,31,02,36,11.30
2009,10,31,02,37,8.00
2009,10,31,02,38,10.00
2009,10,31,02,39,9.90
2009,10,31,02,40,7.10
2009,10,31,02,41,3.90
2009,10,31,02,42,5.10
2009,10,31,02,43,8.90
2009,10,31,02,44,4.90
2009,10,31,02,45,2.50
2009,10,31,02,46,2.00
2009,10,31,02,47,4.10
2009,10,31,02,48,5.00
2009,10,31,02,49,6.70
2009,10,31,02,50,5.20
2009,10,31,02,51,7.00
2009,10,31,02,52,16.00
2009,10,31,02,53,14.10
2009,10,31,02,54,9.10
2009,10,31,02,55,9.40
2009,10,31,02,56,8.00
2009,10,31,02,57,11.10
2009,10,31,02,58,10.40
2009,10,31,02,59,7.90
2009,10,31,03,00,16.20
2009,10,31,03,01,12.70
2009,10,31,03,02,11.50
2009,10,31,03,03,15.50
2009,10,31,03,04,16.50
2009,10,31,03,05,18.90
2009,10,31,03,06,14.80
2009,10,31,03,07,18.40
2009,10,31,03,08,14.20
2009,10,31,03,09,20.40
2009,10,31,03,10,16.00
2009,10,31,03,11,20.80
2009,10,31,03,12,21.50
2009,10,31,03,13,18.00
2009,10,31,03,14,19.90
2009,10,31,03,15,11.30
2009,10,31,03,16,13.30
2009,10,31,03,17,9.50
2009,10,31,03,18,16.90
2009,10,31,03,19,11.80
2009,10,31,03,20,12.10
2009,10,31,03,21,18.10
2009,10,31,03,22,15.90
2009,10,31,03,23,12.10
2009,10,31,03,24,11.30
2009,10,31,03,25,15.50
2009,10,31,03,26,13.50
2009,10,31,03,27,8.20
2009,10,31,03,28,9.80
2009,10,31,03,29,8.40
2009,10,31,03,30,13.40
2009,10,31,03,31,17.20
2009,10,31,03,32,15.40
2009,10,31,03,33,13.10
2009,10,31,03,34,17.60
2009,10,31,03,35,9.70
2009,10,31,03,36,9.40
2009,10,31,03,37,14.10
2009,10,31,03,38,12.60
2009,10,31,03,39,15.20
2009,10,31,03,40,13.70
2009,10,31,03,41,15.90
2009,10,31,03,42,19.20
2009,10,31,03,43,23.80
2009,10,31,03,44,27.80
2009,10,31,03,45,15.90
2009,10,31,03,46,12.10
2009,10,31,03,47,14.70
2009,10,31,03,48,12.70
2009,10,31,03,49,17.00
2009,10,31,03,50,12.10
2009,10,31,03,51,14.00
2009,10,31,03,52,14.90
2009,10,31,03,53,15.30
2009,10,31,03,54,14.00
2009,10,31,03,55,15.90
2009,10,31,03,56,13.50
2009,10,31,03,57,14.80
2009,10,31,03,58,20.20
2009,10,31,03,59,16.30
2009,10,31,04,00,21.50
2009,10,31,04,01,17.10
2009,10,31,04,02,18.40
2009,10,31,04,03,11.50
2009,10,31,04,04,16.40
2009,10,31,04,05,16.20
2009,10,31,04,06,11.00
2009,10,31,04,07,18.70
2009,10,31,04,08,17.40
2009,10,31,04,09,15.50
2009,10,31,04,10,19.20
2009,10,31,04,11,20.80
2009,10,31,04,12,42.30
2009,10,31,04,13,28.40
2009,10,31,04,14,19.20
2009,10,31,04,15,19.60
2009,10,31,04,16,22.50
2009,10,31,04,17,12.90
2009,10,31,04,18,14.40
2009,10,31,04,19,12.00
2009,10,31,04,20,9.60
2009,10,31,04,21,14.10
2009,10,31,04,22,20.50
2009,10,31,04,23,23.70
2009,10,31,04,24,18.50
2009,10,31,04,25,17.90
2009,10,31,04,26,23.70
2009,10,31,04,27,28.40
2009,10,31,04,28,16.30
2009,10,31,04,29,15.90
2009,10,31,04,30,19.50
2009,10,31,04,31,11.50
2009,10,31,04,32,20.50
2009,10,31,04,33,18.20
2009,10,31,04,34,18.70
2009,10,31,04,35,15.40
2009,10,31,04,36,20.80
2009,10,31,04,37,18.20
2009,10,31,04,38,17.90
2009,10,31,04,39,19.90
2009,10,31,04,40,21.80
2009,10,31,04,41,18.70
2009,10,31,04,42,17.80
2009,10,31,04,43,22.70
2009,10,31,04,44,19.60
2009,10,31,04,45,20.80
2009,10,31,04,46,12.70
2009,10,31,04,47,14.80
2009,10,31,04,48,19.00
2009,10,31,04,49,18.10
2009,10,31,04,50,21.10
2009,10,31,04,51,19.80
2009,10,31,04,52,22.50
2009,10,31,04,53,28.30
2009,10,31,04,54,15.60
2009,10,31,04,55,21.20
2009,10,31,04,56,20.80
2009,10,31,04,57,18.80
2009,10,31,04,58,19.10
2009,10,31,04,59,20.90
2009,10,31,05,00,16.50
2009,10,31,05,01,19.00
2009,10,31,05,02,18.30
2009,10,31,05,03,17.20
2009,10,31,05,04,14.90
2009,10,31,05,05,14.20
2009,10,31,05,06,19.70
2009,10,31,05,07,11.70
2009,10,31,05,08,15.10
2009,10,31,05,09,18.90
2009,10,31,05,10,12.60
2009,10,31,05,11,14.30
2009,10,31,05,12,14.20
2009,10,31,05,13,13.10
2009,10,31,05,14,16.70
2009,10,31,05,15,11.70
2009,10,31,05,16,21.70
2009,10,31,05,17,23.90
2009,10,31,05,18,18.60
2009,10,31,05,19,21.10
2009,10,31,05,20,18.90
2009,10,31,05,21,16.20
2009,10,31,05,22,26.50
2009,10,31,05,23,26.10
2009,10,31,05,24,17.00
2009,10,31,05,25,12.80
2009,10,31,05,26,24.00
2009,10,31,05,27,13.70
2009,10,31,05,28,23.90
2009,10,31,05,29,25.50
2009,10,31,05,30,16.50
2009,10,31,05,31,21.70
2009,10,31,05,32,23.70
2009,10,31,05,33,15.90
2009,10,31,05,34,16.50
2009,10,31,05,35,16.80
2009,10,31,05,36,15.90
2009,10,31,05,37,15.80
2009,10,31,05,38,20.00
2009,10,31,05,39,16.00
2009,10,31,05,40,14.40
2009,10,31,05,41,15.00
2009,10,31,05,42,12.80
2009,10,31,05,43,23.10
2009,10,31,05,44,21.20
2009,10,31,05,45,23.60
2009,10,31,05,46,16.60
2009,10,31,05,47,13.80
2009,10,31,05,48,19.80
2009,10,31,05,49,19.60
2009,10,31,05,50,25.70
2009,10,31,05,51,15.30
2009,10,31,05,52,13.60
2009,10,31,05,53,15.30
2009,10,31,05,54,16.80
2009,10,31,05,55,16.90
2009,10,31,05,56,22.00
2009,10,31,05,57,14.70
2009,10,31,05,58,10.50
2009,10,31,05,59,10.20
2009,10,31,06,00,9.40
2009,10,31,06,01,10.90
2009,10,31,06,02,17.70
2009,10,31,06,03,11.80
2009,10,31,06,04,15.30
2009,10,31,06,05,22.80
2009,10,31,06,06,26.50
2009,10,31,06,07,25.50
2009,10,31,06,08,16.60
2009,10,31,06,09,19.20
2009,10,31,06,10,19.90
2009,10,31,06,11,15.70
2009,10,31,06,12,12.40
2009,10,31,06,13,12.90
2009,10,31,06,14,17.20
2009,10,31,06,15,13.80
2009,10,31,06,16,10.40
2009,10,31,06,17,17.50
2009,10,31,06,18,20.10
2009,10,31,06,19,17.60
2009,10,31,06,20,8.60
2009,10,31,06,21,18.30
2009,10,31,06,22,17.20
2009,10,31,06,23,11.70
2009,10,31,06,24,15.50
2009,10,31,06,25,13.80
2009,10,31,06,26,13.60
2009,10,31,06,27,19.10
2009,10,31,06,28,15.00
2009,10,31,06,29,18.30
2009,10,31,06,30,9.70
2009,10,31,06,31,14.00
2009,10,31,06,32,19.20
2009,10,31,06,33,22.80
2009,10,31,06,34,16.90
2009,10,31,06,35,16.40
2009,10,31,06,36,16.00
2009,10,31,06,37,15.30
2009,10,31,06,38,17.20
2009,10,31,06,39,12.20
2009,10,31,06,40,15.80
2009,10,31,06,41,12.60
2009,10,31,06,42,15.40
2009,10,31,06,43,12.20
2009,10,31,06,44,20.20
2009,10,31,06,45,11.90
2009,10,31,06,46,18.10
2009,10,31,06,47,16.50
2009,10,31,06,48,9.70
2009,10,31,06,49,14.80
2009,10,31,06,50,14.60
2009,10,31,06,51,11.00
2009,10,31,06,52,5.30
2009,10,31,06,53,11.50
2009,10,31,06,54,11.90
2009,10,31,06,55,13.20
2009,10,31,06,56,16.20
2009,10,31,06,57,11.90
2009,10,31,06,58,6.00
2009,10,31,06,59,8.40
2009,10,31,07,00,8.20
2009,10,31,07,01,7.60
2009,10,31,07,02,7.70
2009,10,31,07,03,9.40
2009,10,31,07,04,11.90
2009,10,31,07,05,6.40
2009,10,31,07,06,9.30
2009,10,31,07,07,11.40
2009,10,31,07,08,6.90
2009,10,31,07,09,4.20
2009,10,31,07,10,4.50
2009,10,31,07,11,6.30
2009,10,31,07,12,6.70
2009,10,31,07,13,4.50
2009,10,31,07,14,7.00
2009,10,31,07,15,13.70
2009,10,31,07,16,7.50
2009,10,31,07,17,2.60
2009,10,31,07,18,4.60
2009,10,31,07,19,4.30
2009,10,31,07,20,7.10
2009,10,31,07,21,7.80
2009,10,31,07,22,6.40
2009,10,31,07,23,12.90
2009,10,31,07,24,10.80
2009,10,31,07,25,14.50
2009,10,31,07,26,7.40
2009,10,31,07,27,5.50
2009,10,31,07,28,11.40
2009,10,31,07,29,13.80
2009,10,31,07,30,8.50
2009,10,31,07,31,5.70
2009,10,31,07,32,11.90
2009,10,31,07,33,10.30
2009,10,31,07,34,13.50
2009,10,31,07,35,15.20
2009,10,31,07,36,23.60
2009,10,31,07,37,12.70
2009,10,31,07,38,19.80
2009,10,31,07,39,15.90
2009,10,31,07,40,21.40
2009,10,31,07,41,20.40
2009,10,31,07,42,9.50
2009,10,31,07,43,9.90
2009,10,31,07,44,11.40
2009,10,31,07,45,6.80
2009,10,31,07,46,17.60
2009,10,31,07,47,8.30
2009,10,31,07,48,11.70
2009,10,31,07,49,10.50
2009,10,31,07,50,13.00
2009,10,31,07,51,18.40
2009,10,31,07,52,13.70
2009,10,31,07,53,8.90
2009,10,31,07,54,14.90
2009,10,31,07,55,7.80
2009,10,31,07,56,9.00
2009,10,31,07,57,9.60
2009,10,31,07,58,9.00
2009,10,31,07,59,9.40
2009,10,31,08,00,3.60
2009,10,31,08,01,4.90
2009,10,31,08,02,6.70
2009,10,31,08,03,7.70
2009,10,31,08,04,7.30
2009,10,31,08,05,5.50
2009,10,31,08,06,7.20
2009,10,31,08,07,8.80
2009,10,31,08,08,11.20
2009,10,31,08,09,10.00
2009,10,31,08,10,6.70
2009,10,31,08,11,6.40
2009,10,31,08,12,2.30
2009,10,31,08,13,4.80
2009,10,31,08,14,6.20
2009,10,31,08,15,5.50
2009,10,31,08,16,4.30
2009,10,31,08,17,3.20
2009,10,31,08,18,8.60
2009,10,31,08,19,5.50
2009,10,31,08,20,5.60
2009,10,31,08,21,4.20
2009,10,31,08,22,7.20
2009,10,31,08,23,8.90
2009,10,31,08,24,5.20
2009,10,31,08,25,3.20
2009,10,31,08,26,2.30
2009,10,31,08,27,3.00
2009,10,31,08,28,4.10
2009,10,31,08,29,4.60
2009,10,31,08,30,6.70
2009,10,31,08,31,4.20
2009,10,31,08,32,2.00
2009,10,31,08,33,2.20
2009,10,31,08,34,3.00
2009,10,31,08,35,4.60
2009,10,31,08,36,5.90
2009,10,31,08,37,5.90
2009,10,31,08,38,3.90
2009,10,31,08,39,7.40
2009,10,31,08,40,5.10
2009,10,31,08,41,5.10
2009,10,31,08,42,5.30
2009,10,31,08,43,5.00
2009,10,31,08,44,1.30
2009,10,31,08,45,3.40
2009,10,31,08,46,3.00
2009,10,31,08,47,0.70
2009,10,31,08,48,2.40
2009,10,31,08,49,2.90
2009,10,31,08,50,3.90
2009,10,31,08,51,2.90
2009,10,31,08,52,2.40
2009,10,31,08,53,2.00
2009,10,31,08,54,1.30
2009,10,31,08,55,1.60
2009,10,31,08,56,1.90
2009,10,31,08,57,3.60
2009,10,31,08,58,3.50
2009,10,31,08,59,2.30
2009,10,31,09,00,0.80
2009,10,31,09,01,1.40
2009,10,31,09,02,1.10
2009,10,31,09,03,1.70
2009,10,31,09,04,2.80
2009,10,31,09,05,2.20
2009,10,31,09,06,3.80
2009,10,31,09,07,2.00
2009,10,31,09,08,1.90
2009,10,31,09,09,4.00
2009,10,31,09,10,3.50
2009,10,31,09,11,4.00
2009,10,31,09,12,5.80
2009,10,31,09,13,3.10
2009,10,31,09,14,1.90
2009,10,31,09,15,1.90
2009,10,31,09,16,5.10
2009,10,31,09,17,2.90
2009,10,31,09,18,1.80
2009,10,31,09,19,0.90
2009,10,31,09,20,0.30
2009,10,31,09,21,0.20
2009,10,31,09,22,2.20
2009,10,31,09,23,2.60
2009,10,31,09,24,1.90
2009,10,31,09,25,3.80
2009,10,31,09,26,4.30
2009,10,31,09,27,6.20
2009,10,31,09,28,5.10
2009,10,31,09,29,7.40
2009,10,31,09,30,6.40
2009,10,31,09,31,4.70
2009,10,31,09,32,4.80
2009,10,31,09,33,4.50
2009,10,31,09,34,6.40
2009,10,31,09,35,6.60
2009,10,31,09,36,8.90
2009,10,31,09,37,7.20
2009,10,31,09,38,9.20
2009,10,31,09,39,9.00
2009,10,31,09,40,6.40
2009,10,31,09,41,4.20
2009,10,31,09,42,6.50
2009,10,31,09,43,5.10
2009,10,31,09,44,5.10
2009,10,31,09,45,6.60
2009,10,31,09,46,5.80
2009,10,31,09,47,9.70
2009,10,31,09,48,7.80
2009,10,31,09,49,6.00
2009,10,31,09,50,10.50
2009,10,31,09,51,6.90
2009,10,31,09,52,3.50
2009,10,31,09,53,7.90
2009,10,31,09,54,7.30
2009,10,31,09,55,2.30
2009,10,31,09,56,10.40
2009,10,31,09,57,8.40
2009,10,31,09,58,8.70
2009,10,31,09,59,8.80
2009,10,31,10,00,5.00
2009,10,31,10,01,6.30
2009,10,31,10,02,6.70
2009,10,31,10,03,8.70
2009,10,31,10,04,8.50
2009,10,31,10,05,13.30
2009,10,31,10,06,8.50
2009,10,31,10,07,11.00
2009,10,31,10,08,14.30
2009,10,31,10,09,14.60
2009,10,31,10,10,8.80
2009,10,31,10,11,16.50
2009,10,31,10,12,16.10
2009,10,31,10,13,17.40
2009,10,31,10,14,12.60
2009,10,31,10,15,15.40
2009,10,31,10,16,10.40
2009,10,31,10,17,11.60
2009,10,31,10,18,12.00
2009,10,31,10,19,8.00
2009,10,31,10,20,8.40
2009,10,31,10,21,15.10
2009,10,31,10,22,7.60
2009,10,31,10,23,18.90
2009,10,31,10,24,16.20
2009,10,31,10,25,13.00
2009,10,31,10,26,18.50
2009,10,31,10,27,9.60
2009,10,31,10,28,13.50
2009,10,31,10,29,12.70
2009,10,31,10,30,16.70
2009,10,31,10,31,20.90
2009,10,31,10,32,15.00
2009,10,31,10,33,19.80
2009,10,31,10,34,18.80
2009,10,31,10,35,18.40
2009,10,31,10,36,14.50
2009,10,31,10,37,9.90
2009,10,31,10,38,20.20
2009,10,31,10,39,20.80
2009,10,31,10,40,14.10
2009,10,31,10,41,9.90
2009,10,31,10,42,12.20
2009,10,31,10,43,16.30
2009,10,31,10,44,12.40
2009,10,31,10,45,12.80
2009,10,31,10,46,10.10
2009,10,31,10,47,9.70
2009,10,31,10,48,13.50
2009,10,31,10,49,17.60
2009,10,31,10,50,15.90
2009,10,31,10,51,14.90
2009,10,31,10,52,20.60
2009,10,31,10,53,14.30
2009,10,31,10,54,10.50
2009,10,31,10,55,11.00
2009,10,31,10,56,8.20
2009,10,31,10,57,4.90
2009,10,31,10,58,4.80
2009,10,31,10,59,6.80
2009,10,31,11,00,6.80
2009,10,31,11,01,8.20
2009,10,31,11,02,14.80
2009,10,31,11,03,13.20
2009,10,31,11,04,8.30
2009,10,31,11,05,17.00
2009,10,31,11,06,18.40
2009,10,31,11,07,12.60
2009,10,31,11,08,16.90
2009,10,31,11,09,11.40
2009,10,31,11,10,6.20
2009,10,31,11,11,10.00
2009,10,31,11,12,5.60
2009,10,31,11,13,8.50
2009,10,31,11,14,10.80
2009,10,31,11,15,9.40
2009,10,31,11,16,9.30
2009,10,31,11,17,8.30
2009,10,31,11,18,8.90
2009,10,31,11,19,12.00
2009,10,31,11,20,15.00
2009,10,31,11,21,10.20
2009,10,31,11,22,14.40
2009,10,31,11,23,12.60
2009,10,31,11,24,10.60
2009,10,31,11,25,8.10
2009,10,31,11,26,14.50
2009,10,31,11,27,13.30
2009,10,31,11,28,13.60
2009,10,31,11,29,9.20
2009,10,31,11,30,5.20
2009,10,31,11,31,10.10
2009,10,31,11,32,8.70
2009,10,31,11,33,11.00
2009,10,31,11,34,8.20
2009,10,31,11,35,11.90
2009,10,31,11,36,10.90
2009,10,31,11,37,8.20
2009,10,31,11,38,13.30
2009,10,31,11,39,12.80
2009,10,31,11,40,19.40
2009,10,31,11,41,19.50
2009,10,31,11,42,14.10
2009,10,31,11,43,20.30
2009,10,31,11,44,23.20
2009,10,31,11,45,21.20
2009,10,31,11,46,22.10
2009,10,31,11,47,19.60
2009,10,31,11,48,15.50
2009,10,31,11,49,10.20
2009,10,31,11,50,19.50
2009,10,31,11,51,15.80
2009,10,31,11,52,16.20
2009,10,31,11,53,13.10
2009,10,31,11,54,13.50
2009,10,31,11,55,17.70
2009,10,31,11,56,14.10
2009,10,31,11,57,19.80
2009,10,31,11,58,16.40
2009,10,31,11,59,7.70
2009,10,31,12,00,13.20
2009,10,31,12,01,18.20
2009,10,31,12,02,17.70
2009,10,31,12,03,17.70
2009,10,31,12,04,17.80
2009,10,31,12,05,16.30
2009,10,31,12,06,8.00
2009,10,31,12,07,6.00
2009,10,31,12,08,7.10
2009,10,31,12,09,12.90
2009,10,31,12,10,9.90
2009,10,31,12,11,9.50
2009,10,31,12,12,14.00
2009,10,31,12,13,12.00
2009,10,31,12,14,12.20
2009,10,31,12,15,9.50
2009,10,31,12,16,16.70
2009,10,31,12,17,19.70
2009,10,31,12,18,14.80
2009,10,31,12,19,15.50
2009,10,31,12,20,14.60
2009,10,31,12,21,15.00
2009,10,31,12,22,13.00
2009,10,31,12,23,8.20
2009,10,31,12,24,9.30
2009,10,31,12,25,10.50
2009,10,31,12,26,11.50
2009,10,31,12,27,11.70
2009,10,31,12,28,13.10
2009,10,31,12,29,14.00
2009,10,31,12,30,7.50
2009,10,31,12,31,13.70
2009,10,31,12,32,19.00
2009,10,31,12,33,18.20
2009,10,31,12,34,19.50
2009,10,31,12,35,14.30
2009,10,31,12,36,19.50
2009,10,31,12,37,14.00
2009,10,31,12,38,20.10
2009,10,31,12,39,8.10
2009,10,31,12,40,6.90
2009,10,31,12,41,9.80
2009,10,31,12,42,20.10
2009,10,31,12,43,30.10
2009,10,31,12,44,30.00
2009,10,31,12,45,25.40
2009,10,31,12,46,19.50
2009,10,31,12,47,21.40
2009,10,31,12,48,20.30
2009,10,31,12,49,16.90
2009,10,31,12,50,16.40
2009,10,31,12,51,12.80
2009,10,31,12,52,21.10
2009,10,31,12,53,15.50
2009,10,31,12,54,19.10
2009,10,31,12,55,21.80
2009,10,31,12,56,17.80
2009,10,31,12,57,9.90
2009,10,31,12,58,15.40
2009,10,31,12,59,11.90
2009,10,31,13,00,11.10
2009,10,31,13,01,9.10
2009,10,31,13,02,12.50
2009,10,31,13,03,11.30
2009,10,31,13,04,11.30
2009,10,31,13,05,12.40
2009,10,31,13,06,16.90
2009,10,31,13,07,12.60
2009,10,31,13,08,20.80
2009,10,31,13,09,15.30
2009,10,31,13,10,7.30
2009,10,31,13,11,13.70
2009,10,31,13,12,17.00
2009,10,31,13,13,20.20
2009,10,31,13,14,18.10
2009,10,31,13,15,16.50
2009,10,31,13,16,11.10
2009,10,31,13,17,14.50
2009,10,31,13,18,8.30
2009,10,31,13,19,12.60
2009,10,31,13,20,13.10
2009,10,31,13,21,14.20
2009,10,31,13,22,9.40
2009,10,31,13,23,11.40
2009,10,31,13,24,9.60
2009,10,31,13,25,9.40
2009,10,31,13,26,13.50
2009,10,31,13,27,7.80
2009,10,31,13,28,10.40
2009,10,31,13,29,9.80
2009,10,31,13,30,11.30
2009,10,31,13,31,13.80
2009,10,31,13,32,13.50
2009,10,31,13,33,13.30
2009,10,31,13,34,11.80
2009,10,31,13,35,14.20
2009,10,31,13,36,18.60
2009,10,31,13,37,8.60
2009,10,31,13,38,10.40
2009,10,31,13,39,15.90
2009,10,31,13,40,16.70
2009,10,31,13,41,15.60
2009,10,31,13,42,13.70
2009,10,31,13,43,11.70
2009,10,31,13,44,14.90
2009,10,31,13,45,17.10
2009,10,31,13,46,15.10
2009,10,31,13,47,19.80
2009,10,31,13,48,20.40
2009,10,31,13,49,16.50
2009,10,31,13,50,13.10
2009,10,31,13,51,17.20
2009,10,31,13,52,15.30
2009,10,31,13,53,14.60
2009,10,31,13,54,5.80
2009,10,31,13,55,12.20
2009,10,31,13,56,12.70
2009,10,31,13,57,12.90
2009,10,31,13,58,21.40
2009,10,31,13,59,14.40
2009,10,31,14,00,15.30
2009,10,31,14,01,19.40
2009,10,31,14,02,20.30
2009,10,31,14,03,12.00
2009,10,31,14,04,16.70
2009,10,31,14,05,9.30
2009,10,31,14,06,16.40
2009,10,31,14,07,15.80
2009,10,31,14,08,10.90
2009,10,31,14,09,10.10
2009,10,31,14,10,17.10
2009,10,31,14,11,13.80
2009,10,31,14,12,16.40
2009,10,31,14,13,18.50
2009,10,31,14,14,13.00
2009,10,31,14,15,13.30
2009,10,31,14,16,12.50
2009,10,31,14,17,14.00
2009,10,31,14,18,19.90
2009,10,31,14,19,22.10
2009,10,31,14,20,21.40
2009,10,31,14,21,16.10
2009,10,31,14,22,20.20
2009,10,31,14,23,23.60
2009,10,31,14,24,14.20
2009,10,31,14,25,16.60
2009,10,31,14,26,10.70
2009,10,31,14,27,12.50
2009,10,31,14,28,15.20
2009,10,31,14,29,16.70
2009,10,31,14,30,18.50
2009,10,31,14,31,21.10
2009,10,31,14,32,18.30
2009,10,31,14,33,19.80
2009,10,31,14,34,18.40
2009,10,31,14,35,12.80
2009,10,31,14,36,17.30
2009,10,31,14,37,15.40
2009,10,31,14,38,12.20
2009,10,31,14,39,11.60
2009,10,31,14,40,13.60
2009,10,31,14,41,13.10
2009,10,31,14,42,13.00
2009,10,31,14,43,19.00
2009,10,31,14,44,15.80
2009,10,31,14,45,16.20
2009,10,31,14,46,17.90
2009,10,31,14,47,24.30
2009,10,31,14,48,18.10
2009,10,31,14,49,14.80
2009,10,31,14,50,14.20
2009,10,31,14,51,17.70
2009,10,31,14,52,18.30
2009,10,31,14,53,14.70
2009,10,31,14,54,19.80
2009,10,31,14,55,24.30
2009,10,31,14,56,17.00
2009,10,31,14,57,11.80
2009,10,31,14,58,13.80
2009,10,31,14,59,13.00
2009,10,31,15,00,15.90
2009,10,31,15,01,16.80
2009,10,31,15,02,13.70
2009,10,31,15,03,9.70
2009,10,31,15,04,21.00
2009,10,31,15,05,20.50
2009,10,31,15,06,20.30
2009,10,31,15,07,16.50
2009,10,31,15,08,18.90
2009,10,31,15,09,20.10
2009,10,31,15,10,18.50
2009,10,31,15,11,11.90
2009,10,31,15,12,12.60
2009,10,31,15,13,20.40
2009,10,31,15,14,14.20
2009,10,31,15,15,21.50
2009,10,31,15,16,24.50
2009,10,31,15,17,29.20
2009,10,31,15,18,22.00
2009,10,31,15,19,14.80
2009,10,31,15,20,25.80
2009,10,31,15,21,22.10
2009,10,31,15,22,19.30
2009,10,31,15,23,15.80
2009,10,31,15,24,24.90
2009,10,31,15,25,24.50
2009,10,31,15,26,23.50
2009,10,31,15,27,23.00
2009,10,31,15,28,20.60
2009,10,31,15,29,20.00
2009,10,31,15,30,18.90
2009,10,31,15,31,22.80
2009,10,31,15,32,15.60
2009,10,31,15,33,19.00
2009,10,31,15,34,23.20
2009,10,31,15,35,17.10
2009,10,31,15,36,21.10
2009,10,31,15,37,19.80
2009,10,31,15,38,18.60
2009,10,31,15,39,16.10
2009,10,31,15,40,13.00
2009,10,31,15,41,17.10
2009,10,31,15,42,13.10
2009,10,31,15,43,17.90
2009,10,31,15,44,18.10
2009,10,31,15,45,19.90
2009,10,31,15,46,14.80
2009,10,31,15,47,18.30
2009,10,31,15,48,10.70
2009,10,31,15,49,12.60
2009,10,31,15,50,21.10
2009,10,31,15,51,17.90
2009,10,31,15,52,16.40
2009,10,31,15,53,11.60
2009,10,31,15,54,17.50
2009,10,31,15,55,11.10
2009,10,31,15,56,22.50
2009,10,31,15,57,19.90
2009,10,31,15,58,17.80
2009,10,31,15,59,13.90
2009,10,31,16,00,18.70
2009,10,31,16,01,20.80
2009,10,31,16,02,13.50
2009,10,31,16,03,13.40
2009,10,31,16,04,16.40
2009,10,31,16,05,16.90
2009,10,31,16,06,14.70
2009,10,31,16,07,17.40
2009,10,31,16,08,14.10
2009,10,31,16,09,18.40
2009,10,31,16,10,11.30
2009,10,31,16,11,11.20
2009,10,31,16,12,10.80
2009,10,31,16,13,15.50
2009,10,31,16,14,11.60
2009,10,31,16,15,12.00
2009,10,31,16,16,14.30
2009,10,31,16,17,12.80
2009,10,31,16,18,11.60
2009,10,31,16,19,13.80
2009,10,31,16,20,11.10
2009,10,31,16,21,15.10
2009,10,31,16,22,16.20
2009,10,31,16,23,7.10
2009,10,31,16,24,6.00
2009,10,31,16,25,13.50
2009,10,31,16,26,15.10
2009,10,31,16,27,16.20
2009,10,31,16,28,11.50
2009,10,31,16,29,15.90
2009,10,31,16,30,11.80
2009,10,31,16,31,16.90
2009,10,31,16,32,10.20
2009,10,31,16,33,17.60
2009,10,31,16,34,14.30
2009,10,31,16,35,20.20
2009,10,31,16,36,9.20
2009,10,31,16,37,10.80
2009,10,31,16,38,16.30
2009,10,31,16,39,17.50
2009,10,31,16,40,11.60
2009,10,31,16,41,15.00
2009,10,31,16,42,8.40
2009,10,31,16,43,15.40
2009,10,31,16,44,14.70
2009,10,31,16,45,18.00
2009,10,31,16,46,13.00
2009,10,31,16,47,18.70
2009,10,31,16,48,18.40
2009,10,31,16,49,20.70
2009,10,31,16,50,15.70
2009,10,31,16,51,18.20
2009,10,31,16,52,13.50
2009,10,31,16,53,11.60
2009,10,31,16,54,14.30
2009,10,31,16,55,15.60
2009,10,31,16,56,20.10
2009,10,31,16,57,19.80
2009,10,31,16,58,13.60
2009,10,31,16,59,14.30
2009,10,31,17,00,8.70
2009,10,31,17,01,15.80
2009,10,31,17,02,9.00
2009,10,31,17,03,10.70
2009,10,31,17,04,13.00
2009,10,31,17,05,14.10
2009,10,31,17,06,15.10
2009,10,31,17,07,17.00
2009,10,31,17,08,19.50
2009,10,31,17,09,11.90
2009,10,31,17,10,10.70
2009,10,31,17,11,14.70
2009,10,31,17,12,16.70
2009,10,31,17,13,12.20
2009,10,31,17,14,14.00
2009,10,31,17,15,16.60
2009,10,31,17,16,11.20
2009,10,31,17,17,8.80
2009,10,31,17,18,16.30
2009,10,31,17,19,16.70
2009,10,31,17,20,12.70
2009,10,31,17,21,15.50
2009,10,31,17,22,14.10
2009,10,31,17,23,15.60
2009,10,31,17,24,22.50
2009,10,31,17,25,16.60
2009,10,31,17,26,11.60
2009,10,31,17,27,15.70
2009,10,31,17,28,10.70
2009,10,31,17,29,15.40
2009,10,31,17,30,14.60
2009,10,31,17,31,10.50